Location: Recife
(8.0585°S, 34.8848°W)
Time: 13:07:12
(UTC-03:00)

Injun/Solrad 3 - Pass Details

Date: 19 April 2026
Orbit: 868 x 988 km, 66.8° (Epoch: 12 May)

Event Time Altitude Azimuth Distance (km) Brightness Sun altitude
Rises 06:56:43 0° 354° (N) 3,678 11.1 22.1°
Reaches altitude 10° 06:59:25 10° 0° (N) 2,731 10.6 22.7°
Maximum altitude 07:05:29 45° 71° (ENE) 1,303 10.3 24.1°
Drops below altitude 10° 07:11:29 10° 142° (SE) 2,705 10.7 25.6°
Sets 07:14:07 0° 148° (SSE) 3,639 11.2 26.2°
